x

St Catherines Pt. (03866) Weather Station

9:00am - Tue 9th Feb 2016 All times are GMT.

  • Wind
    1mph
  • 空気 Temp 41°f
  • Sea Pressure 986mb
  • St Catherines Pt.
  • St Catherines Pt.

More Historic Weather Station data

Upgrade to MSW Pro to gain access to the past 30 days of data for over 8000 Wavebouys and Weather Stations around the globe.

Join Pro

Comparision Forecast

View Surf forecast
   
Tue 02/09 9:00am 1
mph
986mb 41f
8:00am 7
mph
986mb 41f
7:00am 6
mph
988mb 41f
6:00am 18
mph
989mb 44f
5:00am 13
mph
990mb 47f
4:00am 18 30 mph 993mb 48f
3:00am 23 36 mph 995mb 48f
2:00am 29 44 mph 995mb 47f
1:00am 34 44 mph 996mb 47f
Mon 02/08 11:00pm 33 45 mph 997mb 47f
10:00pm 36 49 mph 997mb 48f
8:00pm 37 55 mph 996mb 48f
7:00pm 41 55 mph 996mb 48f
6:00pm 43 68 mph 995mb 47f
4:00pm 51 69 mph 992mb 49f
3:00pm 52 67 mph 991mb 49f
2:00pm 51 67 mph 990mb 49f
1:00pm 52 70 mph 989mb 49f
12:00pm 53 69 mph 989mb 49f
11:00am 48 68 mph 988mb 49f
10:00am 49 64 mph 988mb 49f
9:00am 44 64 mph 987mb 48f
8:00am 44 57 mph 987mb 48f
7:00am 44 60 mph 987mb 48f
6:00am 39 56 mph 987mb 47f
4:00am 39 62 mph 987mb 48f
3:00am 39 54 mph 987mb 48f
2:00am 36 63 mph 987mb 50f
1:00am 34 47 mph 987mb 51f
12:00am 33 56 mph 987mb 49f
Sun 02/07 11:00pm 37 60 mph 987mb 52f
10:00pm 39 52 mph 988mb 51f
9:00pm 31 47 mph 990mb 49f
8:00pm 29 45 mph 992mb 48f
7:00pm 30 47 mph 994mb 48f
6:00pm 31 44 mph 995mb 47f
4:00pm 36 54 mph 997mb 46f
3:00pm 29 45 mph 998mb 48f
2:00pm 26 38 mph 997mb 48f
1:00pm 22 47 mph 997mb 47f
12:00pm 29 39 mph 997mb 49f
11:00am 30 40 mph 997mb 49f
10:00am 31 44 mph 996mb 48f
9:00am 32 43 mph 995mb 47f
7:00am 34 43 mph 994mb 46f
6:00am 29 43 mph 993mb 45f
5:00am 26 41 mph 992mb 44f
4:00am 25 46 mph 992mb 46f
3:00am 29 45 mph 991mb 47f
2:00am 28 46 mph 991mb 47f
1:00am 24 40 mph 990mb 47f
Sat 02/06 11:00pm 14 47 mph 989mb 45f
10:00pm 36 49 mph 988mb 46f
9:00pm 22 44 mph 987mb 50f
8:00pm 30 46 mph 988mb 51f
6:00pm 23 38 mph 991mb 52f
5:00pm 25 38 mph 992mb 53f
4:00pm 22 37 mph 993mb 53f
2:00pm 23 36 mph 996mb 52f
1:00pm 21 39 mph 998mb 52f
12:00pm 23 40 mph 999mb 52f
11:00am 22 36 mph 1000mb 52f
10:00am 22 36 mph 1001mb 51f
9:00am 21 32 mph 1002mb 51f
7:00am 15
mph
1004mb 50f
6:00am 15
mph
1005mb 50f
5:00am 16
mph
1006mb 50f
4:00am 18
mph
1006mb 50f
3:00am 16 30 mph 1007mb 50f
2:00am 19 32 mph 1008mb 49f
1:00am 21 31 mph 1009mb 51f
Fri 02/05 11:00pm 18 31 mph 1010mb 50f
10:00pm 17 30 mph 1011mb 50f
8:00pm 14
mph
1013mb 50f
7:00pm 13
mph
1014mb 50f
6:00pm 15
mph
1014mb 50f
4:00pm 13
mph
1016mb 50f
3:00pm 16
mph
1017mb 50f
2:00pm 19
mph
1018mb 50f
1:00pm 16
mph
1019mb 50f
12:00pm 18 31 mph 1020mb 50f